Regional Weather Roundup
Issued by NWS

Home | Current Version | Previous Version | Graphics & Text | Print | Product List | Glossary On
Versions: 1 2 3 4 5 6 7 8 9 10 11 12 13 14 15 16 17 18 19 20 21 22 23 24 25 26 27 28 29 30 31 32 33 34 35 36 37 38 39 40 41 42 43 44 45 46 47 48 49
000
ASUS45 KTFX 291410
RWRMT
MONTANA REGIONAL WEATHER ROUNDUP
NATIONAL WEATHER SERVICE GREAT FALLS MT
800 AM MDT MON JUN 29 2015

NOTE: "FAIR" INDICATES FEW OR NO CLOUDS BELOW 12000 FEET WITH NO
SIGNIFICANT WEATHER AND/OR OBSTRUCTIONS TO VISIBILITY.

MTZ001>007-043-291500-
WEST OF THE DIVIDE

CITY           SKY/WX    TMP DP  RH WIND       PRES   REMARKS
KALISPELL      PTSUNNY   80  53  39 NE10      30.00S
MISSOULA       CLOUDY    70  50  49 S5        30.06R
BUTTE          SUNNY     71  47  42 N3        30.23S
MULLAN PASS    CLOUDY    68  50  52 VRB5      30.26R
DEER LODGE       N/A     70  52  52 S5        30.20F
EUREKA           N/A     72  55  56 N3        30.02R
HAMILTON         N/A     72  50  46 S8        30.07S
RONAN            N/A     74  65  73 CALM      30.06R
$$

MTZ008-052>055-291500-
SOUTHWEST MONTANA

CITY           SKY/WX    TMP DP  RH WIND       PRES   REMARKS
BOZEMAN        SUNNY     72  50  45 CALM      30.18S
DILLON         SUNNY     65  49  56 SW9       30.22R
W YELLOWSTONE  SUNNY     57  46  67 CALM      30.38S
THREE FORKS      N/A     68  68 100 CALM      30.15R
TWIN BRIDGES     N/A     67  44  43 SE5       30.17R
$$

MTZ009-010-012-014-046-048-049-054-291500-
EAST SLOPES AND CENTRAL MONTANA

CITY           SKY/WX    TMP DP  RH WIND       PRES   REMARKS
CUT BANK       MOSUNNY   72  53  51 E5        30.12F
GREAT FALLS    MOSUNNY   70  48  45 S7        30.11S
MALMSTROM AFB  MOSUNNY   71  51  49 SW5       30.11S
HELENA         MOSUNNY   71  51  49 N5        30.13R
$$

MTZ011-013-016-021-045-047-050-051-291500-
NORTH CENTRAL MONTANA

CITY           SKY/WX    TMP DP  RH WIND       PRES   REMARKS
HAVRE          MOSUNNY   80  53  39 E9        30.06F
LEWISTOWN      MOSUNNY   72  53  51 E5        30.15
CHINOOK          N/A     73  55  53 CALM      30.07R
FORT BENTON      N/A     72  52  49 S5        30.09S
$$

MTZ017>020-022>027-061-062-291500-
NORTHEAST MONTANA

CITY           SKY/WX    TMP DP  RH WIND       PRES   REMARKS
GLASGOW        SUNNY     74  56  53 NW6       30.01S
JORDAN           N/A     75  58  55 W5        30.04S
SIDNEY         SUNNY     70  59  68 CALM      30.02R
WOLF POINT     SUNNY     72  59  63 CALM      29.99S
MALTA            N/A     74  57  55 CALM      30.01S
PLENTYWOOD       N/A     73  63  68 SE5       30.00F
POPLAR           N/A    N/A N/A N/A SE5       29.99F
$$

MTZ028>42-056>058-291500-
SOUTHCENTRAL AND SOUTHEAST MONTANA

CITY           SKY/WX    TMP DP  RH WIND       PRES   REMARKS
BAKER          SUNNY     73  62  68 CALM      30.09R
BILLINGS       MOSUNNY   69  54  58 SW6       30.13R
LIVINGSTON     SUNNY     66  50  56 NW5       30.20S
MILES CITY     SUNNY     73  60  63 SE6       30.05S
BIG TIMBER       N/A     68  52  56 W7        30.20S
FORSYTH          N/A     72  54  53 W8        30.06R
LAUREL           N/A     69  52  54 SW5       30.11R
ROUNDUP          N/A     68  52  56 S10       30.02S
$$

REGIONAL REPORTS...DAKOTAS

CITY           SKY/WX    TMP DP  RH WIND       PRES   REMARKS
WILLISTON      MOSUNNY   74  59  59 VRB3      30.01R
MINOT          PTSUNNY   76  57  51 W10       29.96R
DICKINSON      SUNNY     74  63  68 W7        30.03R
BEACH          FAIR      73  66  78 S6        30.06S
CROSBY         FAIR      68  64  88 SE3       30.00F
BISMARCK       SUNNY     70  59  68 W5        29.99S
GRAND FORKS    CLOUDY    69  64  84 W8        29.83R
FARGO          SUNNY     68  62  81 W6        29.85F HAZE
BUFFALO SD       N/A     73  60  63 NW3       30.02R
RAPID CITY     MOSUNNY   76  62  62 NW3       30.08R
$$

REGIONAL REPORTS...WYOMING/IDAHO/WASHINGTON

CITY           SKY/WX    TMP DP  RH WIND       PRES   REMARKS
GILLETTE       SUNNY     71  58  63 S8        30.17S
SHERIDAN       SUNNY     74  58  57 CALM      30.15R
BUFFALO WY     SUNNY     79  45  29 NW8       30.21R
CODY           MOSUNNY   72  50  46 SW5       30.24S
YELLOWSTONE LA   N/A     57  49  74 CALM      30.47S
IDAHO FALLS    SUNNY     66  59  78 N6        30.15S
SALMON         SUNNY     70  52  52 CALM      30.12S
BOISE          MOSUNNY   82  54  37 E3        29.98R
SPOKANE        LGT RAIN  81  56  42 S5        29.99R
$$

REGIONAL REPORTS...ALBERTA

CITY           SKY/WX    TMP DP  RH WIND       PRES   REMARKS
EDMONTON       PTSUNNY   64  50  59 SW2       30.11R
CALGARY        CLOUDY    70  48  46 S7        30.13R
MEDICINE HAT   PTSUNNY   72  54  53 NE2       30.06S
WATERTON GATE    N/A     64  57  77 SW3         N/A
CARDSTON         N/A     66  59  77 W3          N/A
ONEFOUR          N/A     79  46  31 E15         N/A
$$

REGIONAL REPORTS...SASKATCHEWAN

CITY           SKY/WX    TMP DP  RH WIND       PRES   REMARKS
SWIFT CURRENT  SUNNY     72  57  60 NE3       30.07R
REGINA         PTSUNNY   77  57  50 N5        30.00S
SASKATOON        N/A     64  54  68 NW3       30.05S SMOKE
CYPRESS HILLS    N/A     72  50  46 NE5         N/A
VAL MARIE        N/A     75  55  50 N8          N/A
ROCKGLEN         N/A     73  57  56 NW8         N/A
$$



USA.gov is the U.S. government's official web portal to all federal, state and local government web resources and services.